Year,Month,Day,Hour,Minute,Value (Times are PST for windspeed in km/hr)
2016,03,14,00,00,19.10
2016,03,14,00,01,21.20
2016,03,14,00,02,24.00
2016,03,14,00,03,25.20
2016,03,14,00,04,24.60
2016,03,14,00,05,28.80
2016,03,14,00,06,19.80
2016,03,14,00,07,23.10
2016,03,14,00,08,22.70
2016,03,14,00,09,18.50
2016,03,14,00,10,19.10
2016,03,14,00,11,16.10
2016,03,14,00,12,19.80
2016,03,14,00,13,16.20
2016,03,14,00,14,16.20
2016,03,14,00,15,13.70
2016,03,14,00,16,16.20
2016,03,14,00,17,14.70
2016,03,14,00,18,12.00
2016,03,14,00,19,14.10
2016,03,14,00,20,10.40
2016,03,14,00,21,9.90
2016,03,14,00,22,11.90
2016,03,14,00,23,13.60
2016,03,14,00,24,8.60
2016,03,14,00,25,7.70
2016,03,14,00,26,6.10
2016,03,14,00,27,9.50
2016,03,14,00,28,10.60
2016,03,14,00,29,9.00
2016,03,14,00,30,7.30
2016,03,14,00,31,7.80
2016,03,14,00,32,10.60
2016,03,14,00,33,10.90
2016,03,14,00,34,4.90
2016,03,14,00,35,6.00
2016,03,14,00,36,7.50
2016,03,14,00,37,5.40
2016,03,14,00,38,5.70
2016,03,14,00,39,7.50
2016,03,14,00,40,6.10
2016,03,14,00,41,6.70
2016,03,14,00,42,6.60
2016,03,14,00,43,7.60
2016,03,14,00,44,4.90
2016,03,14,00,45,3.50
2016,03,14,00,46,2.60
2016,03,14,00,47,0.00
2016,03,14,00,48,2.30
2016,03,14,00,49,1.00
2016,03,14,00,50,0.00
2016,03,14,00,51,0.00
2016,03,14,00,52,0.20
2016,03,14,00,53,0.20
2016,03,14,00,54,0.10
2016,03,14,00,55,0.00
2016,03,14,00,56,0.10
2016,03,14,00,57,0.00
2016,03,14,00,58,1.30
2016,03,14,00,59,0.30
2016,03,14,01,00,0.00
2016,03,14,01,01,0.00
2016,03,14,01,02,0.00
2016,03,14,01,03,0.00
2016,03,14,01,04,0.00
2016,03,14,01,05,0.60
2016,03,14,01,06,0.00
2016,03,14,01,07,0.40
2016,03,14,01,08,1.50
2016,03,14,01,09,1.80
2016,03,14,01,10,0.40
2016,03,14,01,11,1.50
2016,03,14,01,12,2.10
2016,03,14,01,13,0.80
2016,03,14,01,14,0.20
2016,03,14,01,15,1.30
2016,03,14,01,16,1.20
2016,03,14,01,17,3.50
2016,03,14,01,18,2.20
2016,03,14,01,19,2.50
2016,03,14,01,20,3.00
2016,03,14,01,21,0.90
2016,03,14,01,22,2.80
2016,03,14,01,23,1.60
2016,03,14,01,24,2.40
2016,03,14,01,25,3.20
2016,03,14,01,26,1.40
2016,03,14,01,27,0.00
2016,03,14,01,28,0.00
2016,03,14,01,29,0.00
2016,03,14,01,30,0.00
2016,03,14,01,31,0.00
2016,03,14,01,32,3.20
2016,03,14,01,33,4.80
2016,03,14,01,34,3.50
2016,03,14,01,35,1.70
2016,03,14,01,36,0.00
2016,03,14,01,37,0.00
2016,03,14,01,38,0.00
2016,03,14,01,39,0.00
2016,03,14,01,40,0.00
2016,03,14,01,41,0.00
2016,03,14,01,42,0.00
2016,03,14,01,43,0.00
2016,03,14,01,44,0.00
2016,03,14,01,45,1.00
2016,03,14,01,46,3.20
2016,03,14,01,47,1.90
2016,03,14,01,48,2.50
2016,03,14,01,49,0.90
2016,03,14,01,50,0.20
2016,03,14,01,51,0.30
2016,03,14,01,52,3.30
2016,03,14,01,53,3.50
2016,03,14,01,54,3.40
2016,03,14,01,55,2.90
2016,03,14,01,56,3.20
2016,03,14,01,57,3.00
2016,03,14,01,58,4.00
2016,03,14,01,59,5.90
2016,03,14,02,00,5.40
2016,03,14,02,01,3.50
2016,03,14,02,02,3.40
2016,03,14,02,03,4.60
2016,03,14,02,04,4.10
2016,03,14,02,05,4.20
2016,03,14,02,06,4.00
2016,03,14,02,07,3.90
2016,03,14,02,08,4.20
2016,03,14,02,09,4.70
2016,03,14,02,10,5.30
2016,03,14,02,11,5.10
2016,03,14,02,12,5.30
2016,03,14,02,13,4.40
2016,03,14,02,14,5.80
2016,03,14,02,15,4.50
2016,03,14,02,16,4.00
2016,03,14,02,17,3.80
2016,03,14,02,18,5.00
2016,03,14,02,19,8.00
2016,03,14,02,20,6.90
2016,03,14,02,21,4.20
2016,03,14,02,22,3.60
2016,03,14,02,23,3.00
2016,03,14,02,24,3.10
2016,03,14,02,25,3.40
2016,03,14,02,26,3.50
2016,03,14,02,27,4.80
2016,03,14,02,28,5.20
2016,03,14,02,29,4.90
2016,03,14,02,30,5.60
2016,03,14,02,31,4.90
2016,03,14,02,32,3.80
2016,03,14,02,33,4.10
2016,03,14,02,34,3.90
2016,03,14,02,35,3.00
2016,03,14,02,36,3.00
2016,03,14,02,37,2.80
2016,03,14,02,38,4.60
2016,03,14,02,39,1.10
2016,03,14,02,40,2.00
2016,03,14,02,41,2.10
2016,03,14,02,42,4.40
2016,03,14,02,43,4.50
2016,03,14,02,44,8.80
2016,03,14,02,45,7.10
2016,03,14,02,46,7.60
2016,03,14,02,47,7.00
2016,03,14,02,48,8.10
2016,03,14,02,49,12.10
2016,03,14,02,50,16.60
2016,03,14,02,51,14.80
2016,03,14,02,52,8.50
2016,03,14,02,53,5.70
2016,03,14,02,54,6.30
2016,03,14,02,55,8.30
2016,03,14,02,56,8.60
2016,03,14,02,57,9.00
2016,03,14,02,58,7.20
2016,03,14,02,59,9.20
2016,03,14,03,00,13.00
2016,03,14,03,01,7.00
2016,03,14,03,02,7.90
2016,03,14,03,03,3.50
2016,03,14,03,04,6.50
2016,03,14,03,05,4.70
2016,03,14,03,06,4.70
2016,03,14,03,07,7.30
2016,03,14,03,08,5.90
2016,03,14,03,09,5.80
2016,03,14,03,10,5.10
2016,03,14,03,11,3.80
2016,03,14,03,12,5.40
2016,03,14,03,13,5.70
2016,03,14,03,14,5.00
2016,03,14,03,15,2.70
2016,03,14,03,16,4.00
2016,03,14,03,17,4.70
2016,03,14,03,18,3.70
2016,03,14,03,19,2.70
2016,03,14,03,20,2.70
2016,03,14,03,21,1.50
2016,03,14,03,22,2.40
2016,03,14,03,23,4.20
2016,03,14,03,24,6.40
2016,03,14,03,25,6.40
2016,03,14,03,26,6.00
2016,03,14,03,27,6.20
2016,03,14,03,28,6.40
2016,03,14,03,29,7.60
2016,03,14,03,30,6.30
2016,03,14,03,31,4.80
2016,03,14,03,32,6.90
2016,03,14,03,33,9.50
2016,03,14,03,34,6.10
2016,03,14,03,35,6.10
2016,03,14,03,36,7.80
2016,03,14,03,37,6.50
2016,03,14,03,38,7.30
2016,03,14,03,39,8.20
2016,03,14,03,40,4.20
2016,03,14,03,41,0.90
2016,03,14,03,42,2.30
2016,03,14,03,43,7.50
2016,03,14,03,44,10.50
2016,03,14,03,45,14.10
2016,03,14,03,46,15.10
2016,03,14,03,47,12.10
2016,03,14,03,48,16.00
2016,03,14,03,49,10.00
2016,03,14,03,50,16.50
2016,03,14,03,51,13.50
2016,03,14,03,52,14.00
2016,03,14,03,53,9.70
2016,03,14,03,54,10.60
2016,03,14,03,55,12.20
2016,03,14,03,56,8.90
2016,03,14,03,57,7.50
2016,03,14,03,58,5.80
2016,03,14,03,59,6.60
2016,03,14,04,00,7.60
2016,03,14,04,01,11.80
2016,03,14,04,02,7.10
2016,03,14,04,03,7.50
2016,03,14,04,04,6.20
2016,03,14,04,05,5.30
2016,03,14,04,06,6.30
2016,03,14,04,07,4.90
2016,03,14,04,08,6.50
2016,03,14,04,09,4.30
2016,03,14,04,10,5.10
2016,03,14,04,11,5.20
2016,03,14,04,12,5.60
2016,03,14,04,13,3.00
2016,03,14,04,14,5.80
2016,03,14,04,15,4.00
2016,03,14,04,16,5.50
2016,03,14,04,17,5.80
2016,03,14,04,18,3.70
2016,03,14,04,19,4.90
2016,03,14,04,20,4.60
2016,03,14,04,21,9.50
2016,03,14,04,22,8.80
2016,03,14,04,23,6.40
2016,03,14,04,24,3.70
2016,03,14,04,25,3.90
2016,03,14,04,26,2.90
2016,03,14,04,27,1.80
2016,03,14,04,28,2.00
2016,03,14,04,29,1.00
2016,03,14,04,30,1.80
2016,03,14,04,31,2.60
2016,03,14,04,32,2.90
2016,03,14,04,33,5.20
2016,03,14,04,34,7.70
2016,03,14,04,35,3.90
2016,03,14,04,36,1.90
2016,03,14,04,37,5.70
2016,03,14,04,38,6.00
2016,03,14,04,39,3.90
2016,03,14,04,40,2.60
2016,03,14,04,41,4.00
2016,03,14,04,42,3.50
2016,03,14,04,43,3.20
2016,03,14,04,44,5.80
2016,03,14,04,45,7.50
2016,03,14,04,46,6.70
2016,03,14,04,47,6.80
2016,03,14,04,48,6.40
2016,03,14,04,49,4.70
2016,03,14,04,50,3.40
2016,03,14,04,51,4.50
2016,03,14,04,52,3.90
2016,03,14,04,53,4.70
2016,03,14,04,54,4.10
2016,03,14,04,55,6.00
2016,03,14,04,56,9.30
2016,03,14,04,57,6.90
2016,03,14,04,58,8.80
2016,03,14,04,59,8.50
2016,03,14,05,00,8.10
2016,03,14,05,01,8.90
2016,03,14,05,02,14.20
2016,03,14,05,03,17.80
2016,03,14,05,04,17.70
2016,03,14,05,05,15.10
2016,03,14,05,06,9.30
2016,03,14,05,07,10.60
2016,03,14,05,08,9.70
2016,03,14,05,09,8.80
2016,03,14,05,10,7.70
2016,03,14,05,11,8.30
2016,03,14,05,12,9.60
2016,03,14,05,13,12.20
2016,03,14,05,14,20.10
2016,03,14,05,15,18.90
2016,03,14,05,16,21.20
2016,03,14,05,17,19.90
2016,03,14,05,18,18.00
2016,03,14,05,19,17.40
2016,03,14,05,20,19.70
2016,03,14,05,21,18.10
2016,03,14,05,22,14.90
2016,03,14,05,23,14.30
2016,03,14,05,24,14.00
2016,03,14,05,25,17.10
2016,03,14,05,26,14.40
2016,03,14,05,27,13.10
2016,03,14,05,28,11.70
2016,03,14,05,29,10.00
2016,03,14,05,30,9.30
2016,03,14,05,31,11.30
2016,03,14,05,32,8.70
2016,03,14,05,33,7.70
2016,03,14,05,34,6.50
2016,03,14,05,35,6.80
2016,03,14,05,36,7.30
2016,03,14,05,37,8.80
2016,03,14,05,38,7.20
2016,03,14,05,39,6.90
2016,03,14,05,40,7.70
2016,03,14,05,41,10.00
2016,03,14,05,42,10.00
2016,03,14,05,43,6.30
2016,03,14,05,44,6.50
2016,03,14,05,45,8.80
2016,03,14,05,46,9.40
2016,03,14,05,47,10.00
2016,03,14,05,48,13.50
2016,03,14,05,49,9.30
2016,03,14,05,50,10.30
2016,03,14,05,51,13.80
2016,03,14,05,52,9.70
2016,03,14,05,53,10.00
2016,03,14,05,54,8.20
2016,03,14,05,55,7.50
2016,03,14,05,56,6.70
2016,03,14,05,57,9.50
2016,03,14,05,58,8.40
2016,03,14,05,59,7.50
2016,03,14,06,00,11.60
2016,03,14,06,01,14.90
2016,03,14,06,02,10.50
2016,03,14,06,03,12.70
2016,03,14,06,04,14.90
2016,03,14,06,05,10.20
2016,03,14,06,06,7.50
2016,03,14,06,07,6.40
2016,03,14,06,08,7.80
2016,03,14,06,09,8.10
2016,03,14,06,10,5.90
2016,03,14,06,11,6.70
2016,03,14,06,12,5.40
2016,03,14,06,13,6.00
2016,03,14,06,14,6.40
2016,03,14,06,15,13.60
2016,03,14,06,16,10.80
2016,03,14,06,17,13.00
2016,03,14,06,18,13.10
2016,03,14,06,19,10.30
2016,03,14,06,20,8.70
2016,03,14,06,21,9.40
2016,03,14,06,22,12.10
2016,03,14,06,23,14.10
2016,03,14,06,24,7.90
2016,03,14,06,25,5.90
2016,03,14,06,26,6.50
2016,03,14,06,27,5.40
2016,03,14,06,28,4.30
2016,03,14,06,29,2.70
2016,03,14,06,30,4.10
2016,03,14,06,31,4.20
2016,03,14,06,32,2.70
2016,03,14,06,33,1.60
2016,03,14,06,34,2.60
2016,03,14,06,35,3.40
2016,03,14,06,36,3.00
2016,03,14,06,37,2.20
2016,03,14,06,38,0.50
2016,03,14,06,39,2.20
2016,03,14,06,40,5.70
2016,03,14,06,41,4.30
2016,03,14,06,42,4.20
2016,03,14,06,43,4.20
2016,03,14,06,44,5.10
2016,03,14,06,45,5.30
2016,03,14,06,46,3.40
2016,03,14,06,47,3.70
2016,03,14,06,48,3.50
2016,03,14,06,49,4.70
2016,03,14,06,50,4.30
2016,03,14,06,51,3.70
2016,03,14,06,52,2.70
2016,03,14,06,53,4.40
2016,03,14,06,54,3.80
2016,03,14,06,55,6.20
2016,03,14,06,56,3.00
2016,03,14,06,57,3.70
2016,03,14,06,58,3.50
2016,03,14,06,59,2.40
2016,03,14,07,00,3.30
2016,03,14,07,01,3.60
2016,03,14,07,02,5.60
2016,03,14,07,03,5.70
2016,03,14,07,04,6.40
2016,03,14,07,05,5.40
2016,03,14,07,06,6.40
2016,03,14,07,07,5.70
2016,03,14,07,08,6.40
2016,03,14,07,09,4.40
2016,03,14,07,10,5.80
2016,03,14,07,11,6.30
2016,03,14,07,12,5.60
2016,03,14,07,13,4.70
2016,03,14,07,14,10.20
2016,03,14,07,15,8.40
2016,03,14,07,16,8.50
2016,03,14,07,17,8.10
2016,03,14,07,18,8.00
2016,03,14,07,19,6.70
2016,03,14,07,20,7.40
2016,03,14,07,21,6.30
2016,03,14,07,22,4.90
2016,03,14,07,23,5.20
2016,03,14,07,24,4.80
2016,03,14,07,25,4.00
2016,03,14,07,26,3.30
2016,03,14,07,27,2.20
2016,03,14,07,28,3.40
2016,03,14,07,29,1.60
2016,03,14,07,30,4.20
2016,03,14,07,31,4.60
2016,03,14,07,32,3.00
2016,03,14,07,33,1.90
2016,03,14,07,34,3.10
2016,03,14,07,35,3.30
2016,03,14,07,36,1.90
2016,03,14,07,37,1.50
2016,03,14,07,38,1.00
2016,03,14,07,39,0.50
2016,03,14,07,40,0.90
2016,03,14,07,41,0.30
2016,03,14,07,42,0.00
2016,03,14,07,43,0.10
2016,03,14,07,44,0.00
2016,03,14,07,45,0.00
2016,03,14,07,46,0.00
2016,03,14,07,47,0.00
2016,03,14,07,48,0.00
2016,03,14,07,49,0.00
2016,03,14,07,50,0.00
2016,03,14,07,51,0.00
2016,03,14,07,52,0.00
2016,03,14,07,53,0.00
2016,03,14,07,54,0.00
2016,03,14,07,55,0.00
2016,03,14,07,56,0.00
2016,03,14,07,57,0.00
2016,03,14,07,58,0.00
2016,03,14,07,59,0.00
2016,03,14,08,00,0.40
2016,03,14,08,01,0.00
2016,03,14,08,02,0.00
2016,03,14,08,03,0.70
2016,03,14,08,04,0.10
2016,03,14,08,05,0.00
2016,03,14,08,06,0.00
2016,03,14,08,07,0.00
2016,03,14,08,08,0.00
2016,03,14,08,09,0.00
2016,03,14,08,10,0.00
2016,03,14,08,11,0.00
2016,03,14,08,12,0.00
2016,03,14,08,13,0.00
2016,03,14,08,14,0.00
2016,03,14,08,15,0.00
2016,03,14,08,16,0.00
2016,03,14,08,17,0.00
2016,03,14,08,18,0.00
2016,03,14,08,19,0.00
2016,03,14,08,20,0.00
2016,03,14,08,21,0.00
2016,03,14,08,22,0.00
2016,03,14,08,23,0.00
2016,03,14,08,24,0.00
2016,03,14,08,25,0.00
2016,03,14,08,26,0.00
2016,03,14,08,27,0.00
2016,03,14,08,28,0.00
2016,03,14,08,29,0.00
2016,03,14,08,30,2.80
2016,03,14,08,31,3.60
2016,03,14,08,32,3.20
2016,03,14,08,33,2.30
2016,03,14,08,34,0.50
2016,03,14,08,35,0.30
2016,03,14,08,36,0.00
2016,03,14,08,37,0.00
2016,03,14,08,38,0.00
2016,03,14,08,39,0.00
2016,03,14,08,40,0.00
2016,03,14,08,41,0.00
2016,03,14,08,42,0.00
2016,03,14,08,43,0.00
2016,03,14,08,44,0.00
2016,03,14,08,45,0.00
2016,03,14,08,46,0.00
2016,03,14,08,47,0.00
2016,03,14,08,48,0.00
2016,03,14,08,49,0.00
2016,03,14,08,50,0.00
2016,03,14,08,51,0.20
2016,03,14,08,52,0.30
2016,03,14,08,53,0.00
2016,03,14,08,54,0.00
2016,03,14,08,55,1.20
2016,03,14,08,56,0.50
2016,03,14,08,57,0.20
2016,03,14,08,58,2.60
2016,03,14,08,59,3.10
2016,03,14,09,00,2.60
2016,03,14,09,01,2.50
2016,03,14,09,02,2.40
2016,03,14,09,03,3.00
2016,03,14,09,04,3.40
2016,03,14,09,05,2.80
2016,03,14,09,06,2.40
2016,03,14,09,07,2.90
2016,03,14,09,08,3.00
2016,03,14,09,09,3.30
2016,03,14,09,10,2.90
2016,03,14,09,11,3.30
2016,03,14,09,12,3.90
2016,03,14,09,13,4.50
2016,03,14,09,14,4.70
2016,03,14,09,15,4.70
2016,03,14,09,16,4.30
2016,03,14,09,17,3.50
2016,03,14,09,18,3.50
2016,03,14,09,19,5.00
2016,03,14,09,20,6.00
2016,03,14,09,21,3.90
2016,03,14,09,22,3.60
2016,03,14,09,23,4.10
2016,03,14,09,24,4.40
2016,03,14,09,25,5.20
2016,03,14,09,26,6.40
2016,03,14,09,27,6.10
2016,03,14,09,28,5.80
2016,03,14,09,29,5.40
2016,03,14,09,30,5.20
2016,03,14,09,31,5.20
2016,03,14,09,32,5.20
2016,03,14,09,33,3.30
2016,03,14,09,34,2.50
2016,03,14,09,35,4.30
2016,03,14,09,36,4.90
2016,03,14,09,37,3.50
2016,03,14,09,38,3.20
2016,03,14,09,39,3.80
2016,03,14,09,40,5.70
2016,03,14,09,41,5.90
2016,03,14,09,42,6.60
2016,03,14,09,43,5.10
2016,03,14,09,44,5.20
2016,03,14,09,45,4.90
2016,03,14,09,46,3.90
2016,03,14,09,47,5.30
2016,03,14,09,48,6.00
2016,03,14,09,49,4.00
2016,03,14,09,50,4.80
2016,03,14,09,51,3.30
2016,03,14,09,52,3.80
2016,03,14,09,53,4.20
2016,03,14,09,54,4.90
2016,03,14,09,55,5.50
2016,03,14,09,56,3.00
2016,03,14,09,57,3.00
2016,03,14,09,58,3.30
2016,03,14,09,59,2.50
2016,03,14,10,00,4.10
2016,03,14,10,01,4.90
2016,03,14,10,02,3.80
2016,03,14,10,03,4.20
2016,03,14,10,04,3.90
2016,03,14,10,05,4.60
2016,03,14,10,06,4.30
2016,03,14,10,07,4.20
2016,03,14,10,08,5.20
2016,03,14,10,09,5.30
2016,03,14,10,10,4.60
2016,03,14,10,11,4.70
2016,03,14,10,12,4.90
2016,03,14,10,13,7.70
2016,03,14,10,14,6.10
2016,03,14,10,15,4.10
2016,03,14,10,16,5.50
2016,03,14,10,17,9.10
2016,03,14,10,18,7.40
2016,03,14,10,19,7.90
2016,03,14,10,20,6.10
2016,03,14,10,21,10.10
2016,03,14,10,22,8.10
2016,03,14,10,23,6.30
2016,03,14,10,24,6.80
2016,03,14,10,25,7.60
2016,03,14,10,26,7.00
2016,03,14,10,27,6.20
2016,03,14,10,28,4.90
2016,03,14,10,29,7.90
2016,03,14,10,30,8.60
2016,03,14,10,31,13.30
2016,03,14,10,32,10.40
2016,03,14,10,33,9.90
2016,03,14,10,34,15.50
2016,03,14,10,35,17.40
2016,03,14,10,36,9.00
2016,03,14,10,37,5.70
2016,03,14,10,38,7.50
2016,03,14,10,39,11.30
2016,03,14,10,40,12.00
2016,03,14,10,41,11.30
2016,03,14,10,42,10.40
2016,03,14,10,43,9.40
2016,03,14,10,44,8.10
2016,03,14,10,45,7.70
2016,03,14,10,46,8.50
2016,03,14,10,47,11.60
2016,03,14,10,48,11.10
2016,03,14,10,49,7.30
2016,03,14,10,50,8.10
2016,03,14,10,51,14.40
2016,03,14,10,52,9.40
2016,03,14,10,53,12.10
2016,03,14,10,54,12.40
2016,03,14,10,55,13.40
2016,03,14,10,56,13.40
2016,03,14,10,57,14.10
2016,03,14,10,58,10.80
2016,03,14,10,59,16.10
2016,03,14,11,00,12.10
2016,03,14,11,01,12.70
2016,03,14,11,02,12.80
2016,03,14,11,03,13.90
2016,03,14,11,04,17.00
2016,03,14,11,05,14.10
2016,03,14,11,06,12.50
2016,03,14,11,07,9.30
2016,03,14,11,08,11.70
2016,03,14,11,09,9.20
2016,03,14,11,10,8.10
2016,03,14,11,11,12.20
2016,03,14,11,12,8.70
2016,03,14,11,13,10.60
2016,03,14,11,14,4.70
2016,03,14,11,15,5.80
2016,03,14,11,16,8.60
2016,03,14,11,17,6.80
2016,03,14,11,18,5.40
2016,03,14,11,19,5.80
2016,03,14,11,20,8.60
2016,03,14,11,21,7.50
2016,03,14,11,22,10.40
2016,03,14,11,23,12.90
2016,03,14,11,24,12.60
2016,03,14,11,25,9.70
2016,03,14,11,26,15.40
2016,03,14,11,27,9.20
2016,03,14,11,28,5.80
2016,03,14,11,29,8.10
2016,03,14,11,30,9.20
2016,03,14,11,31,7.00
2016,03,14,11,32,9.60
2016,03,14,11,33,8.00
2016,03,14,11,34,11.00
2016,03,14,11,35,9.80
2016,03,14,11,36,5.80
2016,03,14,11,37,3.10
2016,03,14,11,38,10.90
2016,03,14,11,39,9.70
2016,03,14,11,40,9.10
2016,03,14,11,41,8.70
2016,03,14,11,42,11.50
2016,03,14,11,43,9.90
2016,03,14,11,44,6.50
2016,03,14,11,45,10.00
2016,03,14,11,46,9.10
2016,03,14,11,47,9.80
2016,03,14,11,48,6.90
2016,03,14,11,49,8.60
2016,03,14,11,50,8.90
2016,03,14,11,51,8.80
2016,03,14,11,52,5.80
2016,03,14,11,53,6.40
2016,03,14,11,54,8.50
2016,03,14,11,55,8.30
2016,03,14,11,56,7.60
2016,03,14,11,57,7.30
2016,03,14,11,58,4.70
2016,03,14,11,59,7.10
2016,03,14,12,00,4.30
2016,03,14,12,01,3.30
2016,03,14,12,02,3.30
2016,03,14,12,03,6.40
2016,03,14,12,04,6.80
2016,03,14,12,05,4.90
2016,03,14,12,06,2.20
2016,03,14,12,07,5.00
2016,03,14,12,08,5.80
2016,03,14,12,09,5.80
2016,03,14,12,10,4.20
2016,03,14,12,11,2.50
2016,03,14,12,12,3.30
2016,03,14,12,13,5.40
2016,03,14,12,14,3.80
2016,03,14,12,15,6.00
2016,03,14,12,16,4.70
2016,03,14,12,17,4.60
2016,03,14,12,18,6.60
2016,03,14,12,19,6.00
2016,03,14,12,20,5.50
2016,03,14,12,21,5.50
2016,03,14,12,22,3.40
2016,03,14,12,23,2.40
2016,03,14,12,24,2.70
2016,03,14,12,25,10.60
2016,03,14,12,26,7.70
2016,03,14,12,27,7.30
2016,03,14,12,28,6.60
2016,03,14,12,29,8.50
2016,03,14,12,30,6.80
2016,03,14,12,31,4.00
2016,03,14,12,32,4.80
2016,03,14,12,33,6.40
2016,03,14,12,34,9.60
2016,03,14,12,35,8.40
2016,03,14,12,36,7.30
2016,03,14,12,37,8.60
2016,03,14,12,38,12.60
2016,03,14,12,39,6.50
2016,03,14,12,40,4.60
2016,03,14,12,41,6.90
2016,03,14,12,42,6.40
2016,03,14,12,43,6.30
2016,03,14,12,44,8.10
2016,03,14,12,45,8.50
2016,03,14,12,46,10.70
2016,03,14,12,47,7.00
2016,03,14,12,48,3.80
2016,03,14,12,49,5.50
2016,03,14,12,50,6.40
2016,03,14,12,51,8.60
2016,03,14,12,52,7.10
2016,03,14,12,53,7.60
2016,03,14,12,54,7.90
2016,03,14,12,55,10.80
2016,03,14,12,56,8.70
2016,03,14,12,57,5.80
2016,03,14,12,58,8.10
2016,03,14,12,59,7.30
2016,03,14,13,00,6.40
2016,03,14,13,01,8.20
2016,03,14,13,02,11.10
2016,03,14,13,03,13.00
2016,03,14,13,04,11.20
2016,03,14,13,05,10.60
2016,03,14,13,06,11.30
2016,03,14,13,07,9.20
2016,03,14,13,08,12.70
2016,03,14,13,09,15.60
2016,03,14,13,10,10.70
2016,03,14,13,11,7.40
2016,03,14,13,12,9.10
2016,03,14,13,13,8.30
2016,03,14,13,14,8.30
2016,03,14,13,15,8.10
2016,03,14,13,16,5.30
2016,03,14,13,17,7.50
2016,03,14,13,18,10.40
2016,03,14,13,19,6.90
2016,03,14,13,20,6.40
2016,03,14,13,21,8.30
2016,03,14,13,22,9.30
2016,03,14,13,23,8.00
2016,03,14,13,24,9.90
2016,03,14,13,25,10.50
2016,03,14,13,26,8.20
2016,03,14,13,27,6.20
2016,03,14,13,28,7.80
2016,03,14,13,29,8.40
2016,03,14,13,30,12.10
2016,03,14,13,31,13.60
2016,03,14,13,32,8.10
2016,03,14,13,33,10.30
2016,03,14,13,34,6.20
2016,03,14,13,35,14.40
2016,03,14,13,36,11.40
2016,03,14,13,37,7.40
2016,03,14,13,38,7.50
2016,03,14,13,39,9.20
2016,03,14,13,40,7.40
2016,03,14,13,41,7.20
2016,03,14,13,42,10.70
2016,03,14,13,43,8.00
2016,03,14,13,44,10.00
2016,03,14,13,45,8.10
2016,03,14,13,46,6.40
2016,03,14,13,47,5.90
2016,03,14,13,48,8.90
2016,03,14,13,49,5.20
2016,03,14,13,50,8.10
2016,03,14,13,51,8.10
2016,03,14,13,52,7.50
2016,03,14,13,53,10.50
2016,03,14,13,54,16.80
2016,03,14,13,55,20.20
2016,03,14,13,56,15.90
2016,03,14,13,57,15.10
2016,03,14,13,58,9.00
2016,03,14,13,59,19.40
2016,03,14,14,00,21.50
2016,03,14,14,01,14.80
2016,03,14,14,02,10.80
2016,03,14,14,03,13.20
2016,03,14,14,04,18.80
2016,03,14,14,05,18.50
2016,03,14,14,06,16.90
2016,03,14,14,07,10.20
2016,03,14,14,08,10.80
2016,03,14,14,09,10.50
2016,03,14,14,10,8.40
2016,03,14,14,11,13.00
2016,03,14,14,12,14.30
2016,03,14,14,13,10.50
2016,03,14,14,14,19.50
2016,03,14,14,15,12.20
2016,03,14,14,16,19.00
2016,03,14,14,17,18.90
2016,03,14,14,18,17.10
2016,03,14,14,19,12.70
2016,03,14,14,20,17.00
2016,03,14,14,21,12.10
2016,03,14,14,22,14.20
2016,03,14,14,23,12.80
2016,03,14,14,24,10.40
2016,03,14,14,25,12.70
2016,03,14,14,26,14.80
2016,03,14,14,27,18.30
2016,03,14,14,28,19.70
2016,03,14,14,29,15.40
2016,03,14,14,30,13.40
2016,03,14,14,31,13.50
2016,03,14,14,32,15.30
2016,03,14,14,33,15.00
2016,03,14,14,34,16.60
2016,03,14,14,35,11.70
2016,03,14,14,36,10.10
2016,03,14,14,37,9.30
2016,03,14,14,38,17.70
2016,03,14,14,39,12.40
2016,03,14,14,40,13.40
2016,03,14,14,41,14.80
2016,03,14,14,42,13.10
2016,03,14,14,43,9.90
2016,03,14,14,44,11.60
2016,03,14,14,45,13.10
2016,03,14,14,46,14.40
2016,03,14,14,47,8.90
2016,03,14,14,48,11.50
2016,03,14,14,49,12.40
2016,03,14,14,50,16.40
2016,03,14,14,51,31.60
2016,03,14,14,52,25.50
2016,03,14,14,53,21.10
2016,03,14,14,54,20.10
2016,03,14,14,55,18.10
2016,03,14,14,56,16.90
2016,03,14,14,57,16.70
2016,03,14,14,58,16.30
2016,03,14,14,59,15.70
2016,03,14,15,00,15.40
2016,03,14,15,01,17.40
2016,03,14,15,02,16.50
2016,03,14,15,03,14.50
2016,03,14,15,04,8.90
2016,03,14,15,05,8.30
2016,03,14,15,06,14.10
2016,03,14,15,07,12.40
2016,03,14,15,08,10.10
2016,03,14,15,09,11.40
2016,03,14,15,10,16.30
2016,03,14,15,11,16.20
2016,03,14,15,12,14.30
2016,03,14,15,13,12.30
2016,03,14,15,14,11.80
2016,03,14,15,15,15.30
2016,03,14,15,16,16.40
2016,03,14,15,17,17.80
2016,03,14,15,18,11.70
2016,03,14,15,19,11.90
2016,03,14,15,20,14.20
2016,03,14,15,21,15.90
2016,03,14,15,22,20.90
2016,03,14,15,23,18.50
2016,03,14,15,24,19.70
2016,03,14,15,25,15.70
2016,03,14,15,26,11.20
2016,03,14,15,27,13.10
2016,03,14,15,28,12.90
2016,03,14,15,29,18.50
2016,03,14,15,30,18.40
2016,03,14,15,31,12.90
2016,03,14,15,32,14.40
2016,03,14,15,33,13.30
2016,03,14,15,34,12.40
2016,03,14,15,35,14.30
2016,03,14,15,36,14.70
2016,03,14,15,37,17.70
2016,03,14,15,38,16.40
2016,03,14,15,39,15.60
2016,03,14,15,40,13.00
2016,03,14,15,41,11.30
2016,03,14,15,42,15.70
2016,03,14,15,43,17.40
2016,03,14,15,44,12.40
2016,03,14,15,45,12.60
2016,03,14,15,46,10.00
2016,03,14,15,47,10.80
2016,03,14,15,48,6.40
2016,03,14,15,49,5.50
2016,03,14,15,50,6.30
2016,03,14,15,51,9.70
2016,03,14,15,52,7.30
2016,03,14,15,53,4.70
2016,03,14,15,54,4.20
2016,03,14,15,55,5.20
2016,03,14,15,56,7.00
2016,03,14,15,57,9.70
2016,03,14,15,58,9.90
2016,03,14,15,59,9.00
2016,03,14,16,00,9.50
2016,03,14,16,01,8.00
2016,03,14,16,02,4.70
2016,03,14,16,03,4.40
2016,03,14,16,04,4.10
2016,03,14,16,05,6.40
2016,03,14,16,06,7.80
2016,03,14,16,07,11.60
2016,03,14,16,08,12.20
2016,03,14,16,09,10.30
2016,03,14,16,10,19.10
2016,03,14,16,11,14.80
2016,03,14,16,12,14.10
2016,03,14,16,13,15.20
2016,03,14,16,14,8.50
2016,03,14,16,15,14.10
2016,03,14,16,16,9.10
2016,03,14,16,17,15.40
2016,03,14,16,18,17.40
2016,03,14,16,19,9.00
2016,03,14,16,20,13.40
2016,03,14,16,21,13.50
2016,03,14,16,22,17.30
2016,03,14,16,23,11.20
2016,03,14,16,24,9.70
2016,03,14,16,25,5.90
2016,03,14,16,26,8.90
2016,03,14,16,27,9.50
2016,03,14,16,28,6.50
2016,03,14,16,29,7.20
2016,03,14,16,30,9.80
2016,03,14,16,31,11.40
2016,03,14,16,32,9.00
2016,03,14,16,33,6.30
2016,03,14,16,34,10.60
2016,03,14,16,35,12.40
2016,03,14,16,36,15.40
2016,03,14,16,37,15.10
2016,03,14,16,38,13.60
2016,03,14,16,39,16.60
2016,03,14,16,40,16.40
2016,03,14,16,41,21.90
2016,03,14,16,42,17.60
2016,03,14,16,43,17.80
2016,03,14,16,44,15.80
2016,03,14,16,45,10.10
2016,03,14,16,46,7.00
2016,03,14,16,47,9.70
2016,03,14,16,48,9.80
2016,03,14,16,49,9.50
2016,03,14,16,50,13.30
2016,03,14,16,51,7.70
2016,03,14,16,52,15.80
2016,03,14,16,53,21.20
2016,03,14,16,54,21.00
2016,03,14,16,55,16.70
2016,03,14,16,56,17.10
2016,03,14,16,57,18.10
2016,03,14,16,58,17.30
2016,03,14,16,59,17.40
2016,03,14,17,00,19.90
2016,03,14,17,01,18.00
2016,03,14,17,02,12.50
2016,03,14,17,03,9.10
2016,03,14,17,04,10.60
2016,03,14,17,05,14.60
2016,03,14,17,06,18.70
2016,03,14,17,07,13.50
2016,03,14,17,08,18.00
2016,03,14,17,09,15.40
2016,03,14,17,10,18.10
2016,03,14,17,11,20.70
2016,03,14,17,12,16.20
2016,03,14,17,13,20.80
2016,03,14,17,14,16.30
2016,03,14,17,15,14.10
2016,03,14,17,16,9.90
2016,03,14,17,17,9.10
2016,03,14,17,18,11.20
2016,03,14,17,19,12.90
2016,03,14,17,20,12.40
2016,03,14,17,21,16.60
2016,03,14,17,22,22.50
2016,03,14,17,23,18.50
2016,03,14,17,24,19.60
2016,03,14,17,25,16.30
2016,03,14,17,26,22.10
2016,03,14,17,27,19.00
2016,03,14,17,28,16.10
2016,03,14,17,29,12.70
2016,03,14,17,30,18.50
2016,03,14,17,31,14.00
2016,03,14,17,32,14.50
2016,03,14,17,33,13.10
2016,03,14,17,34,15.90
2016,03,14,17,35,15.60
2016,03,14,17,36,15.50
2016,03,14,17,37,16.80
2016,03,14,17,38,16.60
2016,03,14,17,39,13.00
2016,03,14,17,40,17.00
2016,03,14,17,41,14.80
2016,03,14,17,42,9.20
2016,03,14,17,43,11.40
2016,03,14,17,44,10.30
2016,03,14,17,45,14.70
2016,03,14,17,46,17.50
2016,03,14,17,47,11.60
2016,03,14,17,48,13.10
2016,03,14,17,49,10.70
2016,03,14,17,50,11.70
2016,03,14,17,51,13.60